Vorticity
8 8 7 6 6 5 6 7 8 8 8 8 9 9 9 8 7 7 7 6 6 8 8 7 6 7 7 5 4 4 4 4 5 10 12 10 10 8 6 7 7 6 6 6 5 4 5 5 5 7 10 16 21 17 9 5 6 7 7 6 6 8 9 8 7 9 9 7 6 6 7 8 8 9 10 11 14 18 16 14 10 6 6 5 4 5 6 9
8 8 8 8 7 6 5 5 7 9 9 9 9 9 9 9 9 8 8 7 6 7 7 8 7 6 7 7 6 4 4 4 4 8 10 8 10 10 8 7 7 7 7 6 6 5 4 6 5 6 8 12 18 19 15 9 5 6 8 6 6 9 9 8 7 8 9 8 6 6 6 7 7 7 10 11 12 14 15 15 13 12 10 9 9 7 9 12
7 8 9 8 8 7 6 5 5 6 8 10 11 10 10 9 10 10 9 8 7 7 7 7 7 7 6 7 8 6 5 4 4 8 6 4 8 10 10 9 7 7 7 6 6 6 5 5 6 6 7 11 15 17 18 15 8 5 7 7 7 8 8 8 8 8 8 7 6 6 6 6 6 7 8 10 11 11 11 10 10 10 9 10 10 10 12 11
8 7 7 8 8 8 7 6 5 4 4 6 8 11 12 11 10 10 10 10 9 8 8 7 7 8 7 7 7 8 8 6 5 6 5 4 6 8 10 10 9 8 7 7 6 6 6 4 5 6 6 9 13 15 17 17 14 8 6 8 9 8 7 8 7 7 7 6 6 5 6 6 5 6 6 7 11 12 9 8 8 8 9 10 9 11 12 7
8 8 8 7 8 8 8 8 6 5 4 3 4 5 9 12 13 12 10 11 11 11 10 8 8 8 8 8 7 8 9 8 7 6 7 7 6 7 9 8 9 9 8 8 6 6 6 5 5 5 7 8 10 15 16 16 15 10 7 7 8 9 8 8 7 7 7 6 6 5 5 6 5 5 4 4 8 8 6 5 5 6 8 8 8 10 9 5
7 7 8 8 8 8 8 8 7 6 5 4 3 2 2 5 10 13 12 11 11 12 12 11 10 8 9 8 7 8 8 8 7 7 8 7 6 7 7 7 8 8 8 8 7 7 6 6 5 5 7 8 10 15 15 14 15 11 8 8 9 9 8 8 8 7 8 7 6 6 5 5 5 6 5 5 6 5 3 3 3 5 5 4 8 8 5 3
8 7 7 8 8 8 8 8 8 8 7 6 4 3 2 2 3 7 12 13 12 11 11 13 13 11 10 9 8 8 8 10 11 10 10 8 8 8 6 8 8 7 8 8 8 8 6 6 6 5 6 7 10 14 13 12 15 12 6 8 10 9 8 8 8 7 8 7 6 6 5 5 5 5 6 7 7 6 4 3 4 7 6 6 8 7 5 2
9 8 7 8 8 8 8 8 8 8 8 7 6 5 4 3 3 2 5 10 13 13 11 12 14 13 11 9 9 8 8 12 13 9 9 10 8 7 7 8 8 7 8 7 8 7 6 6 6 6 6 7 10 12 12 11 15 13 5 5 10 10 9 8 7 7 7 6 6 6 6 5 5 4 6 8 6 3 2 4 6 6 5 5 4 4 5 2
9 9 9 9 8 8 8 8 8 8 8 8 8 7 5 5 4 3 2 4 8 12 12 11 12 14 13 10 10 9 8 10 11 7 9 11 9 8 8 9 9 8 8 7 7 7 6 6 7 6 5 6 8 9 10 12 15 14 6 3 7 8 8 8 7 7 6 6 6 6 6 6 5 4 5 7 5 2 3 5 5 5 3 2 4 7 9 8
9 10 10 10 10 9 8 8 8 8 8 8 8 8 7 5 5 6 5 3 3 6 11 12 11 13 14 13 11 9 9 11 11 9 10 11 10 10 9 9 9 9 9 8 7 7 7 7 6 5 4 5 7 8 9 13 15 13 9 3 3 7 9 9 8 8 7 6 6 6 6 6 5 6 6 5 5 3 5 5 4 4 3 4 8 13 15 14
9 9 9 10 10 10 9 9 8 8 8 8 9 9 8 7 6 5 5 5 4 3 6 10 12 13 13 15 12 9 12 12 10 9 9 10 10 10 10 10 10 9 9 9 8 7 6 7 5 5 6 6 7 9 10 13 14 13 10 4 3 7 8 9 10 9 8 7 7 5 6 6 5 7 7 5 4 4 5 5 6 6 6 8 10 10 11 12
8 8 9 9 9 9 10 10 9 9 9 8 8 9 10 9 8 6 5 5 6 5 5 6 10 12 12 15 12 10 12 11 9 8 8 10 10 9 10 10 11 10 9 10 10 8 7 7 6 6 6 6 8 9 10 13 14 13 9 4 5 7 6 9 11 9 8 8 6 5 6 5 6 7 7 5 3 3 5 5 5 6 8 8 4 3 5 9
6 7 7 8 8 9 9 10 10 10 10 11 10 10 11 11 10 8 5 5 6 7 6 6 8 10 12 14 14 12 11 10 11 10 9 11 11 10 10 10 11 10 10 10 9 9 8 7 6 6 5 6 7 7 9 13 14 13 9 3 5 7 5 8 12 10 9 8 5 7 7 3 5 7 6 5 3 4 6 6 8 10 11 8 2 4 6 7
9 8 8 8 7 8 8 9 9 9 10 12 12 12 12 13 13 10 7 5 5 6 7 7 7 9 11 12 14 14 11 11 11 10 12 12 10 11 11 10 11 10 9 9 9 8 8 8 7 5 5 5 6 7 10 12 14 13 8 3 4 6 6 8 10 10 10 9 6 8 9 3 4 7 6 6 5 6 8 6 10 13 10 7 6 6 7 9
12 12 12 11 10 9 8 8 8 8 9 10 12 14 13 14 15 12 9 6 5 6 6 7 8 9 10 10 14 13 11 12 11 9 12 12 10 10 11 10 11 10 9 9 9 8 7 8 8 7 7 6 6 8 9 11 13 12 10 5 2 4 8 9 9 10 10 9 7 7 8 4 4 8 8 7 6 4 7 7 9 11 8 8 9 5 6 12
13 13 13 14 13 13 11 9 8 7 7 7 9 12 15 16 15 14 11 7 6 5 5 6 8 11 8 9 14 14 11 11 11 8 9 12 11 9 11 11 11 10 9 9 8 8 7 5 7 8 8 6 6 8 10 11 11 12 10 6 2 3 9 9 9 13 9 6 7 5 7 5 3 7 7 7 8 5 6 7 8 9 8 10 8 2 6 12
15 14 14 13 13 14 13 12 10 8 7 6 5 8 13 15 16 16 13 9 6 5 6 5 6 11 9 9 15 15 12 11 10 8 8 13 11 7 9 11 11 11 9 8 8 7 7 5 5 7 7 6 6 7 8 9 10 12 12 7 2 3 9 7 8 15 7 3 6 5 8 8 3 5 6 7 10 10 8 6 9 10 7 9 8 1 3 9
18 18 17 15 14 13 12 12 12 11 9 7 5 5 7 11 16 17 14 10 7 5 5 5 5 8 10 12 15 15 12 12 10 6 8 14 12 8 8 9 10 11 9 8 8 7 6 6 4 5 7 7 6 6 7 12 15 15 13 9 2 2 10 8 6 14 10 2 3 5 9 10 6 4 5 6 6 7 7 6 9 8 5 6 6 1 0 6
22 23 22 21 19 16 14 12 12 13 11 10 8 5 4 6 12 16 15 11 8 6 5 5 4 5 9 12 13 15 13 13 11 5 8 14 15 11 8 8 9 9 9 8 8 8 6 6 5 4 4 5 7 8 12 16 17 15 12 9 4 1 8 10 5 11 14 6 0 2 7 10 8 4 4 5 4 3 4 6 10 8 6 7 4 -1 -2 3
25 27 26 25 24 22 20 16 14 14 14 13 11 9 7 5 7 12 15 14 9 7 5 5 4 2 8 12 12 13 12 12 10 5 7 12 14 13 9 8 8 8 9 9 8 8 7 6 6 6 4 5 9 11 14 15 14 14 11 8 7 1 4 11 7 7 15 15 5 -0 4 10 10 7 6 5 4 5 5 9 13 7 1 5 7 2 0 6
25 26 28 28 28 27 26 24 21 18 17 16 14 13 11 8 6 6 12 15 10 8 6 5 4 1 7 14 14 14 12 12 9 4 8 13 13 12 9 7 7 8 10 9 8 8 8 7 7 6 4 5 10 11 12 13 12 15 12 8 8 6 4 8 9 6 9 15 12 4 3 6 9 10 8 5 4 5 7 8 14 16 4 4 15 10 3 7
23 23 25 27 28 28 28 28 27 25 21 19 18 16 14 14 9 4 9 13 11 9 7 6 5 -1 5 15 15 14 13 14 11 4 7 13 13 13 11 9 8 10 10 9 7 7 8 7 7 6 4 4 8 9 10 12 12 14 15 9 5 8 8 6 8 7 5 9 14 14 10 6 7 9 6 4 1 0 7 8 12 23 13 5 15 12 4 5
27 29 30 29 28 25 25 27 29 30 27 24 23 19 18 18 13 6 8 9 10 11 6 7 5 -2 5 15 15 14 12 13 13 6 6 10 12 14 14 11 10 10 10 8 8 7 7 8 8 7 5 3 6 8 9 11 12 12 15 11 3 6 10 8 8 7 6 7 8 11 14 11 8 9 8 4 1 1 7 13 12 10 8 12 20 13 6 6
36 40 40 40 38 32 28 25 27 32 32 29 26 23 22 19 13 10 10 7 9 11 7 7 4 -1 7 15 14 14 10 11 12 7 6 8 10 13 14 13 11 10 9 8 8 7 6 8 9 8 6 4 5 7 7 9 11 12 15 12 5 5 7 9 9 6 5 4 2 1 4 11 11 12 14 7 5 7 5 14 11 1 17 33 29 16 5 4
45 42 34 35 37 39 40 32 26 29 31 29 27 26 25 19 15 14 12 10 8 9 9 8 5 4 10 14 14 14 10 10 11 8 7 8 9 10 12 13 12 10 10 8 7 7 6 7 8 9 7 4 4 5 6 8 11 12 15 12 6 8 7 6 7 6 6 5 5 4 1 9 13 12 16 8 7 10 8 15 7 2 25 23 9 17 6 -4
44 38 21 22 26 26 36 38 31 28 29 27 25 28 26 20 19 17 14 15 10 8 11 6 5 8 10 13 17 16 11 12 13 9 7 7 8 8 9 10 11 11 11 9 7 7 7 7 7 8 8 6 4 5 5 7 10 12 16 13 6 9 8 3 5 9 13 13 11 10 7 12 14 11 11 8 8 9 8 16 11 12 31 10 -9 13 10 -5
40 36 12 17 26 17 27 38 30 28 30 27 23 26 25 21 22 20 17 19 14 11 13 9 8 13 12 13 17 16 12 12 13 10 8 10 9 8 8 7 9 11 10 9 9 8 9 8 7 7 7 6 4 5 6 8 10 13 17 14 6 10 10 2 4 11 16 16 11 11 12 12 13 10 8 7 9 9 6 10 8 10 21 4 -15 0 11 7
36 40 10 9 20 13 28 40 28 30 35 27 22 23 25 24 21 20 20 18 17 18 16 11 11 13 13 12 14 13 12 14 16 13 10 11 10 10 10 8 9 10 9 8 8 9 10 9 9 9 7 6 5 5 8 8 10 15 19 14 6 9 9 2 5 9 11 11 9 11 11 8 10 10 9 8 7 10 8 5 4 6 11 5 -10 -6 9 9
31 40 23 9 9 10 32 43 29 27 25 12 10 15 23 27 20 19 20 14 17 22 17 13 15 14 12 13 14 11 9 11 15 15 13 11 9 8 10 11 11 10 9 8 8 8 10 10 11 10 8 9 8 7 8 9 12 17 19 14 6 5 6 2 3 7 7 6 7 10 8 6 8 9 10 10 8 10 12 8 4 6 11 5 -10 -8 4 3
23 37 37 12 6 22 36 36 26 19 10 2 5 13 22 27 22 21 21 14 16 21 18 15 17 16 13 15 16 11 8 9 10 11 13 12 10 9 9 11 12 11 10 9 8 9 10 11 11 9 7 8 8 7 7 9 12 16 17 15 8 4 4 2 1 6 7 5 9 12 7 4 5 7 8 7 7 8 10 10 4 4 11 8 -0 7 13 4
22 33 38 12 10 34 37 33 30 20 11 5 5 15 24 25 20 19 21 18 16 17 18 18 17 15 13 15 18 14 10 10 7 7 10 11 9 8 6 5 8 8 9 9 8 8 9 11 12 9 7 7 6 5 6 10 13 14 15 15 11 6 5 4 1 3 6 6 13 13 5 1 2 5 7 5 6 6 5 10 8 7 12 11 11 21 16 2
23 30 42 26 23 42 41 29 20 9 9 8 5 11 21 24 22 19 20 19 16 16 18 18 17 15 13 14 16 15 13 12 9 6 8 11 10 9 8 7 8 5 6 9 8 7 8 10 12 10 7 8 7 4 4 8 11 12 12 13 12 8 6 4 1 1 3 5 14 14 3 -0 -0 4 7 6 8 7 3 8 10 8 10 9 12 17 9 -2
35 45 44 31 36 46 27 6 -0 2 11 12 5 6 17 28 30 25 21 18 14 16 18 20 19 13 11 14 13 12 12 13 13 9 7 10 12 14 13 10 10 8 8 10 9 7 7 7 10 9 7 7 7 5 3 5 7 8 10 13 12 9 7 6 4 2 1 4 12 14 5 -0 -0 4 8 7 9 9 5 6 5 1 3 4 4 7 4 -0
48 45 37 38 47 31 -0 -6 4 11 13 6 3 11 21 29 29 24 21 18 15 13 15 20 20 13 9 13 13 11 10 9 11 11 8 7 7 11 13 10 9 9 9 11 10 9 7 6 7 8 8 7 7 8 9 10 12 10 11 12 11 10 9 9 9 6 3 3 9 13 5 0 1 4 7 8 9 10 9 7 6 3 3 1 -2 -1 1 1
48 45 44 37 22 1 -3 11 16 10 5 2 11 26 32 29 25 22 20 19 15 11 14 19 20 17 11 9 11 12 10 9 9 10 10 9 8 10 14 14 12 10 9 9 10 10 9 9 9 7 7 8 9 9 7 7 10 10 8 6 8 13 13 11 11 10 8 4 7 11 5 0 1 3 6 8 8 11 10 8 7 5 5 5 -0 -4 -2 3
49 37 16 -3 -5 9 23 23 12 2 -0 11 26 31 31 25 16 15 18 18 15 12 15 17 17 18 14 8 9 10 9 10 9 10 10 11 12 13 15 16 14 12 11 10 10 12 10 9 10 9 7 9 10 9 8 7 7 8 4 4 12 18 13 9 10 9 10 7 5 8 6 2 1 3 6 7 7 8 8 9 11 7 5 4 -2 -3 1 5
17 -12 -19 -1 20 29 22 8 -0 -7 -6 16 30 26 22 13 3 14 22 15 14 14 14 15 15 16 15 10 8 9 8 9 8 9 11 10 11 14 15 14 14 14 14 12 10 12 12 10 10 10 8 9 10 10 11 9 7 7 5 8 15 12 5 8 9 6 7 6 5 9 9 4 1 2 5 4 2 1 4 14 17 9 4 2 -0 1 0 -2
-20 -30 4 34 27 13 7 3 4 7 10 20 26 22 14 0 -2 20 27 14 14 17 12 14 15 14 16 12 10 10 8 8 7 8 10 11 12 14 14 13 12 12 12 12 10 10 11 10 12 12 9 9 12 11 9 6 5 7 8 9 9 4 3 8 8 6 6 4 5 10 10 7 2 2 6 5 3 3 8 19 19 8 4 2 0 1 -3 -1
-7 1 20 15 3 3 4 5 10 15 18 21 24 15 -1 -5 6 21 22 13 15 15 12 15 15 14 16 13 11 11 9 9 9 7 9 11 12 13 14 13 12 11 10 10 10 11 10 9 11 12 11 11 12 9 6 5 5 6 7 8 6 5 7 8 6 8 8 4 5 8 10 10 5 4 9 9 7 10 17 24 21 11 5 0 -1 1 0 3
18 34 19 -9 -9 4 11 17 12 7 18 29 23 -0 -11 4 15 16 17 15 12 13 13 15 16 16 15 12 11 11 10 11 11 9 9 11 12 13 13 13 12 12 11 9 8 9 10 10 9 10 12 12 10 8 7 9 8 5 4 6 6 5 8 8 7 8 7 6 6 5 6 9 7 8 10 6 4 8 12 15 17 13 6 1 1 2 3 4
16 30 15 -3 1 10 21 23 7 14 38 32 5 -8 2 15 12 12 18 15 11 15 15 13 17 16 14 12 11 10 11 10 10 9 9 10 11 11 13 14 12 11 10 10 9 7 9 12 9 9 13 12 11 13 13 12 12 9 8 10 8 5 6 8 8 8 8 7 6 5 4 6 8 8 5 1 5 12 9 3 5 8 5 3 2 2 6 8
11 13 4 1 7 12 14 11 17 43 44 11 -6 6 14 9 6 14 18 12 12 16 13 13 17 16 13 11 9 9 11 10 10 10 9 10 11 10 13 15 14 13 11 11 11 8 7 12 10 9 13 11 10 14 14 11 12 11 9 10 11 7 4 6 8 10 10 6 5 7 6 4 6 5 2 4 10 14 13 7 3 2 3 5 5 4 5 4
10 8 2 -0 9 19 21 30 49 45 11 -10 3 18 14 8 10 14 12 10 14 14 11 13 16 15 12 10 10 10 10 10 11 12 10 10 11 10 12 14 14 15 12 9 10 9 7 10 12 10 10 9 10 13 15 13 13 13 7 5 8 8 5 6 7 9 11 8 4 4 4 4 7 7 7 10 11 9 9 9 6 3 4 6 4 4 4 2
9 6 5 4 20 35 39 45 38 -1 -24 -6 18 20 13 11 13 11 7 8 12 14 13 12 16 17 11 10 12 10 9 10 11 12 12 13 14 11 10 13 13 13 14 12 13 12 9 10 13 11 8 8 8 9 11 11 11 12 10 6 6 8 8 6 4 5 9 10 7 4 2 2 5 6 7 8 11 11 7 2 3 3 0 -1 -1 1 6 8
20 13 12 19 36 45 41 32 2 -29 -17 18 33 25 8 -0 6 7 2 5 10 14 15 13 14 16 11 10 13 10 11 13 11 12 14 15 16 13 10 13 12 10 13 16 14 13 11 10 12 12 9 8 7 5 6 9 9 10 11 9 7 7 9 8 5 4 5 7 9 7 4 1 2 3 4 4 7 10 7 3 5 5 -1 -3 -2 -2 4 11
28 21 22 33 45 41 25 2 -22 -18 13 33 35 25 5 -4 4 3 -1 7 9 7 14 17 15 15 12 10 12 12 11 13 14 16 17 15 14 12 10 12 12 9 11 15 14 12 11 10 11 13 11 10 11 11 11 13 13 11 11 11 8 6 8 8 6 4 4 5 6 6 6 4 1 0 1 3 6 7 7 6 7 6 2 1 -0 -2 6 11
28 30 32 41 41 19 -7 -20 -17 6 28 32 28 23 11 2 1 -2 -1 8 8 3 9 15 15 18 17 11 11 14 12 13 16 17 17 15 12 10 9 10 12 10 10 13 14 12 10 8 10 14 12 9 10 10 9 11 13 11 11 12 9 7 6 8 7 5 5 5 4 4 6 5 4 2 0 2 5 7 8 8 7 8 7 5 1 1 8 10
32 36 33 33 19 -10 -27 -16 5 17 21 25 26 22 17 8 -1 -1 2 6 13 11 5 5 10 17 21 15 12 14 15 17 19 16 13 12 9 9 10 9 10 10 9 11 13 12 11 9 10 13 13 11 9 9 9 9 10 11 11 12 11 9 7 7 8 7 5 5 4 4 4 4 4 3 1 2 4 6 8 9 9 8 6 4 2 3 9 11
32 30 18 4 -11 -21 -17 2 17 17 18 26 24 15 14 9 -0 1 5 7 16 20 12 6 3 8 19 22 20 20 18 17 19 14 9 9 9 9 10 9 9 9 8 9 11 11 10 9 9 11 13 12 9 9 11 10 9 11 12 12 12 11 10 8 8 8 6 4 5 5 4 4 4 3 2 1 1 1 1 3 4 6 6 5 5 7 10 10
31 20 0 -18 -23 -9 11 21 21 19 20 22 18 11 12 14 5 -3 3 10 13 14 17 11 -1 2 16 19 20 25 23 17 17 14 8 8 10 8 9 10 10 9 8 7 9 11 9 8 8 9 12 13 10 8 11 11 10 10 11 13 13 12 11 9 7 8 8 6 6 6 5 5 4 4 4 3 2 3 3 2 1 2 3 3 6 8 7 6
14 -7 -20 -18 -4 15 29 25 16 16 14 11 14 13 10 14 9 -4 2 17 14 8 15 11 -3 4 17 11 10 26 29 18 15 14 10 9 8 6 7 9 10 11 10 7 8 10 10 9 9 9 11 12 10 8 9 11 11 10 9 11 12 13 13 11 9 8 9 8 7 7 8 8 6 5 6 7 8 6 7 8 7 5 5 6 9 11 10 8
-17 -15 -3 12 22 26 22 9 7 16 13 2 9 21 16 6 3 1 6 14 11 12 21 11 -7 2 16 6 4 22 28 18 14 13 10 9 8 7 7 8 9 11 11 10 9 9 10 10 11 12 11 9 9 9 8 8 8 8 9 9 9 10 10 10 11 10 8 8 9 7 9 11 10 7 7 9 11 12 12 13 14 15 13 13 12 11 11 12
Height
5706 5706 5706 5706 5707 5707 5707 5708 5708 5708 5709 5709 5710 5711 5711 5712 5713 5714 5716 5717 5719 5720 5722 5724 5726 5728 5730 5732 5734 5735 5737 5739 5742 5745 5749 5749 5748 5749 5752 5755 5759 5761 5763 5764 5766 5768 5769 5771 5772 5774 5776 5777 5779 5781 5784 5786 5789 5791 5794 5797 5802 5805 5806 5807 5807 5807 5808 5809 5812 5814 5817 5818 5820 5821 5823 5824 5826 5827 5829 5832 5834 5836 5838 5839 5839 5840 5841 5842
5700 5700 5700 5700 5700 5701 5701 5702 5702 5702 5703 5703 5704 5705 5706 5707 5708 5709 5710 5712 5713 5715 5717 5719 5721 5723 5725 5727 5729 5731 5733 5735 5738 5742 5744 5743 5742 5745 5749 5752 5755 5757 5758 5760 5763 5764 5766 5768 5770 5772 5773 5774 5776 5778 5780 5783 5785 5788 5791 5796 5800 5802 5803 5803 5804 5805 5806 5807 5810 5812 5814 5816 5818 5819 5821 5822 5824 5826 5827 5830 5832 5834 5836 5836 5837 5838 5839 5841
5694 5694 5694 5694 5694 5694 5695 5695 5696 5696 5697 5698 5698 5699 5700 5701 5702 5703 5705 5706 5708 5709 5711 5713 5715 5717 5719 5721 5724 5726 5729 5731 5734 5738 5738 5738 5738 5743 5746 5748 5751 5753 5754 5757 5759 5761 5763 5765 5767 5769 5770 5772 5773 5775 5777 5779 5782 5785 5789 5794 5798 5798 5799 5800 5801 5802 5803 5805 5807 5810 5812 5814 5815 5817 5819 5820 5822 5823 5826 5828 5830 5832 5833 5834 5835 5836 5838 5839
5688 5688 5688 5688 5688 5688 5688 5689 5689 5690 5691 5691 5692 5693 5694 5695 5696 5698 5699 5700 5702 5704 5706 5707 5709 5712 5714 5716 5719 5721 5724 5726 5730 5733 5733 5733 5735 5740 5743 5744 5747 5749 5751 5753 5756 5758 5760 5762 5764 5766 5768 5769 5770 5772 5774 5776 5779 5783 5787 5792 5794 5795 5796 5797 5798 5799 5801 5803 5805 5807 5809 5811 5812 5814 5816 5818 5819 5821 5824 5826 5828 5829 5830 5831 5833 5834 5836 5838
5681 5681 5681 5681 5681 5681 5682 5682 5682 5683 5684 5685 5686 5687 5688 5689 5690 5691 5693 5695 5696 5698 5700 5702 5704 5706 5708 5711 5713 5716 5719 5722 5726 5728 5729 5728 5730 5736 5739 5740 5743 5745 5747 5750 5752 5755 5757 5759 5762 5763 5765 5766 5767 5769 5771 5774 5777 5780 5785 5789 5790 5791 5793 5794 5795 5797 5798 5800 5802 5805 5806 5808 5810 5812 5814 5815 5817 5819 5821 5823 5824 5826 5827 5829 5831 5832 5834 5835
5674 5674 5674 5674 5674 5674 5675 5675 5675 5676 5677 5678 5679 5680 5682 5683 5684 5685 5687 5689 5690 5692 5694 5696 5698 5700 5702 5705 5708 5711 5714 5717 5721 5723 5724 5724 5726 5732 5734 5735 5739 5741 5743 5746 5749 5752 5754 5757 5759 5761 5762 5763 5765 5767 5769 5771 5773 5778 5783 5785 5787 5789 5790 5791 5793 5794 5796 5798 5800 5802 5804 5806 5808 5810 5811 5813 5814 5816 5818 5820 5821 5823 5825 5826 5828 5830 5831 5833
5667 5666 5666 5666 5666 5667 5667 5668 5668 5669 5670 5671 5672 5673 5675 5677 5678 5679 5681 5682 5685 5686 5688 5690 5692 5694 5696 5699 5703 5705 5709 5713 5715 5718 5720 5720 5722 5726 5729 5731 5734 5737 5740 5743 5746 5749 5751 5754 5756 5757 5759 5760 5762 5764 5766 5768 5770 5775 5779 5782 5784 5786 5787 5789 5790 5792 5794 5795 5797 5799 5801 5803 5806 5808 5810 5811 5812 5814 5816 5818 5819 5821 5823 5824 5826 5828 5829 5830
5660 5659 5658 5659 5659 5659 5659 5660 5661 5662 5663 5664 5665 5666 5668 5670 5671 5673 5675 5677 5679 5680 5683 5685 5686 5689 5691 5694 5697 5700 5706 5708 5709 5712 5714 5715 5717 5721 5725 5727 5730 5733 5736 5740 5742 5744 5747 5750 5752 5754 5756 5757 5759 5761 5762 5764 5767 5772 5777 5779 5781 5783 5784 5785 5787 5789 5791 5793 5795 5797 5799 5801 5803 5806 5808 5809 5810 5812 5814 5816 5818 5819 5821 5822 5824 5826 5827 5829
5653 5652 5651 5651 5651 5651 5651 5652 5653 5654 5655 5656 5658 5659 5661 5663 5665 5667 5669 5671 5673 5675 5677 5679 5681 5683 5685 5688 5691 5696 5701 5702 5702 5706 5709 5711 5713 5717 5720 5723 5726 5729 5732 5735 5738 5741 5744 5747 5749 5751 5752 5754 5756 5758 5759 5761 5765 5770 5773 5775 5777 5779 5780 5782 5785 5787 5789 5790 5793 5795 5797 5799 5801 5804 5806 5807 5808 5810 5812 5814 5815 5817 5818 5820 5822 5824 5826 5827
5646 5645 5644 5644 5643 5643 5643 5644 5645 5646 5647 5648 5650 5652 5653 5655 5658 5660 5662 5665 5667 5669 5671 5673 5675 5677 5680 5682 5686 5691 5696 5696 5697 5701 5704 5707 5709 5712 5715 5719 5722 5725 5728 5731 5734 5738 5741 5744 5745 5747 5748 5750 5753 5754 5756 5759 5763 5767 5770 5772 5774 5775 5777 5781 5783 5785 5786 5788 5790 5793 5795 5797 5799 5802 5804 5805 5807 5809 5811 5812 5813 5815 5816 5818 5821 5823 5824 5825
5638 5637 5636 5636 5636 5635 5635 5635 5636 5637 5638 5640 5642 5644 5646 5648 5650 5653 5656 5658 5661 5663 5665 5667 5669 5672 5675 5677 5681 5687 5690 5690 5691 5695 5700 5702 5705 5708 5710 5714 5718 5721 5724 5727 5731 5734 5737 5739 5741 5743 5745 5747 5750 5751 5753 5757 5760 5764 5767 5770 5772 5773 5776 5779 5781 5782 5784 5785 5788 5790 5792 5795 5798 5800 5802 5803 5806 5808 5809 5810 5811 5813 5815 5818 5820 5821 5821 5823
5629 5628 5627 5627 5627 5627 5627 5627 5627 5628 5630 5631 5633 5635 5637 5640 5643 5646 5649 5651 5654 5657 5659 5662 5664 5667 5669 5672 5678 5681 5683 5684 5685 5689 5695 5697 5700 5703 5706 5710 5714 5717 5721 5724 5727 5731 5733 5735 5738 5740 5742 5745 5747 5748 5751 5754 5758 5761 5764 5768 5770 5771 5774 5777 5779 5780 5782 5783 5785 5788 5790 5793 5795 5798 5799 5802 5805 5806 5807 5808 5810 5812 5814 5816 5818 5818 5820 5822
5619 5618 5618 5618 5618 5618 5618 5618 5619 5620 5621 5622 5624 5627 5629 5632 5635 5638 5641 5644 5647 5650 5653 5656 5659 5661 5663 5669 5674 5674 5676 5679 5680 5684 5689 5693 5696 5699 5702 5706 5709 5713 5717 5720 5724 5727 5729 5732 5734 5737 5739 5742 5744 5745 5749 5752 5755 5758 5761 5765 5767 5768 5771 5775 5776 5778 5780 5781 5783 5787 5789 5790 5793 5796 5798 5801 5803 5805 5805 5807 5809 5811 5813 5814 5815 5817 5818 5820
5609 5608 5607 5608 5608 5608 5608 5609 5610 5611 5612 5614 5616 5618 5621 5624 5627 5630 5634 5637 5640 5643 5647 5650 5653 5655 5658 5665 5668 5667 5670 5674 5677 5680 5685 5689 5692 5695 5698 5702 5705 5709 5712 5716 5719 5723 5726 5729 5732 5734 5736 5739 5740 5743 5747 5750 5753 5755 5758 5762 5763 5765 5769 5773 5774 5776 5778 5780 5782 5785 5787 5789 5792 5795 5798 5800 5802 5803 5804 5805 5808 5810 5811 5812 5813 5815 5816 5818
5598 5597 5596 5596 5597 5597 5598 5599 5600 5602 5603 5605 5607 5609 5612 5616 5619 5622 5626 5630 5633 5637 5640 5644 5647 5650 5654 5660 5661 5661 5665 5670 5674 5676 5680 5685 5688 5691 5694 5698 5701 5704 5708 5711 5715 5718 5721 5725 5728 5731 5734 5737 5738 5740 5743 5746 5749 5752 5755 5759 5761 5763 5767 5771 5773 5774 5776 5778 5780 5783 5786 5788 5791 5794 5797 5798 5800 5801 5803 5804 5806 5808 5809 5810 5811 5812 5814 5815
5586 5585 5584 5584 5585 5586 5586 5588 5590 5591 5594 5596 5598 5601 5604 5607 5610 5614 5619 5623 5626 5630 5634 5637 5641 5644 5649 5654 5655 5657 5660 5666 5669 5670 5675 5680 5683 5686 5690 5693 5697 5700 5703 5707 5711 5714 5717 5721 5724 5728 5731 5733 5735 5737 5740 5743 5746 5749 5752 5756 5758 5761 5764 5768 5771 5772 5774 5776 5778 5781 5785 5788 5790 5793 5794 5795 5797 5799 5800 5802 5804 5806 5806 5807 5809 5810 5812 5814
5573 5572 5571 5571 5572 5573 5574 5576 5578 5580 5583 5586 5589 5592 5596 5598 5602 5606 5611 5615 5620 5624 5627 5631 5636 5639 5644 5648 5650 5652 5655 5660 5664 5665 5669 5675 5678 5681 5685 5688 5692 5696 5699 5703 5706 5710 5713 5716 5720 5724 5727 5729 5732 5735 5737 5740 5743 5746 5749 5753 5756 5759 5762 5765 5769 5772 5773 5774 5777 5780 5784 5787 5789 5791 5792 5793 5794 5795 5798 5800 5802 5803 5804 5805 5807 5809 5811 5812
5560 5558 5558 5557 5558 5559 5561 5563 5565 5568 5571 5575 5578 5583 5587 5590 5594 5598 5603 5608 5613 5617 5621 5626 5630 5634 5639 5642 5644 5647 5650 5655 5659 5661 5665 5670 5674 5677 5680 5684 5688 5692 5695 5698 5702 5705 5708 5712 5716 5720 5723 5726 5728 5731 5734 5738 5742 5745 5748 5752 5755 5758 5760 5763 5767 5771 5772 5773 5775 5778 5782 5785 5787 5788 5789 5790 5791 5794 5797 5799 5800 5801 5802 5803 5805 5808 5809 5810
5545 5544 5543 5543 5544 5545 5547 5550 5553 5556 5559 5563 5568 5573 5577 5581 5586 5590 5595 5600 5606 5611 5615 5620 5624 5628 5633 5636 5639 5643 5646 5650 5655 5658 5661 5666 5670 5673 5676 5680 5684 5687 5691 5694 5697 5701 5704 5708 5712 5715 5718 5722 5727 5731 5735 5740 5742 5745 5748 5751 5754 5757 5758 5760 5764 5768 5769 5771 5773 5776 5779 5782 5784 5785 5787 5788 5789 5792 5795 5796 5796 5797 5799 5801 5803 5806 5808 5808
5530 5530 5529 5529 5529 5531 5533 5536 5539 5543 5547 5552 5557 5562 5567 5573 5577 5582 5587 5593 5599 5604 5608 5613 5618 5622 5626 5630 5633 5637 5640 5644 5650 5653 5656 5661 5665 5669 5672 5676 5680 5683 5686 5690 5694 5698 5701 5705 5709 5714 5719 5724 5728 5731 5735 5738 5740 5742 5745 5748 5751 5754 5756 5758 5762 5765 5767 5769 5771 5774 5776 5778 5781 5783 5785 5785 5787 5790 5793 5795 5796 5796 5797 5799 5802 5804 5806 5806
5517 5516 5515 5515 5516 5518 5520 5523 5527 5531 5535 5541 5546 5550 5557 5564 5569 5575 5581 5587 5593 5597 5602 5607 5612 5617 5621 5625 5628 5632 5635 5638 5644 5649 5652 5656 5660 5663 5667 5671 5676 5679 5683 5686 5690 5694 5698 5701 5707 5713 5718 5722 5725 5729 5732 5734 5736 5739 5742 5745 5748 5751 5754 5756 5759 5762 5765 5767 5770 5772 5773 5776 5779 5781 5782 5782 5784 5788 5791 5794 5796 5796 5795 5797 5800 5802 5803 5804
5505 5503 5502 5502 5503 5505 5508 5511 5515 5519 5524 5531 5536 5541 5548 5553 5559 5568 5575 5580 5586 5590 5595 5600 5606 5612 5616 5620 5623 5627 5631 5635 5640 5645 5649 5653 5656 5659 5663 5667 5672 5677 5681 5684 5687 5691 5693 5698 5705 5711 5715 5718 5721 5724 5728 5730 5732 5735 5739 5742 5746 5749 5752 5754 5756 5759 5762 5765 5767 5770 5772 5773 5776 5778 5779 5780 5782 5785 5788 5790 5793 5795 5795 5795 5797 5799 5800 5801
5492 5490 5489 5489 5490 5492 5496 5500 5504 5508 5515 5521 5527 5533 5537 5542 5553 5562 5567 5573 5579 5583 5589 5595 5600 5606 5610 5614 5618 5623 5627 5631 5636 5642 5646 5649 5653 5657 5661 5665 5669 5674 5678 5681 5685 5688 5691 5696 5703 5708 5711 5714 5717 5721 5724 5726 5729 5732 5735 5739 5744 5748 5750 5751 5754 5757 5760 5763 5765 5767 5769 5771 5773 5774 5776 5777 5778 5781 5785 5787 5788 5791 5793 5791 5791 5793 5795 5797
5479 5477 5478 5479 5479 5482 5486 5490 5494 5500 5507 5513 5518 5524 5528 5536 5547 5554 5559 5565 5572 5578 5583 5588 5594 5601 5604 5607 5613 5617 5622 5625 5631 5637 5643 5646 5650 5654 5659 5662 5666 5671 5675 5679 5682 5686 5689 5695 5702 5706 5708 5711 5714 5718 5721 5724 5726 5729 5733 5738 5743 5746 5748 5750 5752 5754 5758 5761 5763 5764 5766 5767 5769 5771 5773 5774 5776 5778 5783 5786 5786 5789 5792 5791 5788 5787 5790 5794
5469 5468 5469 5470 5471 5474 5477 5482 5487 5492 5498 5504 5511 5516 5520 5530 5539 5545 5552 5558 5565 5573 5577 5583 5590 5596 5598 5602 5608 5613 5617 5621 5626 5633 5638 5642 5647 5651 5655 5659 5663 5668 5673 5676 5680 5682 5686 5693 5700 5703 5706 5709 5712 5716 5719 5721 5724 5727 5731 5737 5742 5744 5746 5748 5749 5752 5755 5758 5760 5761 5762 5762 5765 5768 5770 5773 5774 5777 5781 5784 5786 5788 5791 5793 5792 5787 5787 5793
5462 5462 5464 5465 5466 5468 5470 5475 5480 5485 5491 5498 5504 5508 5514 5524 5532 5539 5546 5552 5560 5568 5572 5578 5585 5589 5592 5599 5606 5609 5613 5618 5623 5629 5634 5639 5643 5647 5652 5655 5659 5664 5669 5674 5677 5679 5683 5690 5696 5700 5703 5707 5709 5713 5716 5719 5721 5724 5729 5736 5740 5742 5744 5745 5747 5749 5752 5755 5756 5757 5757 5758 5761 5765 5767 5770 5772 5775 5779 5782 5785 5788 5790 5793 5795 5790 5787 5792
5457 5457 5460 5461 5463 5464 5466 5470 5475 5480 5487 5493 5499 5502 5509 5519 5526 5533 5541 5547 5555 5563 5566 5573 5579 5583 5589 5595 5600 5605 5610 5615 5619 5625 5632 5636 5640 5644 5648 5652 5656 5661 5665 5669 5673 5676 5681 5687 5693 5697 5700 5703 5706 5710 5714 5716 5719 5722 5728 5734 5736 5739 5741 5743 5744 5746 5750 5752 5752 5753 5754 5755 5758 5762 5764 5767 5769 5772 5777 5780 5783 5786 5789 5791 5794 5793 5788 5789
5453 5453 5456 5458 5460 5461 5463 5466 5472 5478 5485 5491 5496 5499 5505 5513 5521 5529 5536 5542 5550 5557 5561 5567 5573 5579 5585 5590 5595 5602 5608 5612 5616 5623 5629 5633 5636 5641 5645 5650 5654 5658 5663 5667 5670 5674 5679 5685 5691 5695 5698 5700 5705 5709 5712 5715 5717 5722 5727 5731 5733 5736 5739 5740 5741 5744 5747 5748 5748 5750 5751 5753 5756 5759 5762 5764 5766 5771 5775 5778 5781 5784 5787 5788 5792 5794 5789 5788
5450 5450 5452 5454 5457 5459 5461 5464 5469 5476 5483 5489 5494 5497 5502 5510 5517 5524 5531 5538 5545 5551 5555 5561 5568 5575 5580 5585 5592 5597 5602 5607 5613 5619 5625 5629 5633 5638 5643 5647 5652 5656 5660 5665 5668 5673 5679 5684 5690 5694 5697 5700 5704 5708 5711 5713 5717 5722 5725 5727 5731 5734 5736 5737 5737 5740 5743 5742 5745 5748 5749 5750 5754 5757 5760 5762 5766 5771 5775 5777 5780 5782 5784 5786 5789 5792 5789 5788
5446 5446 5448 5451 5454 5456 5459 5462 5468 5474 5481 5487 5493 5496 5501 5507 5514 5521 5528 5534 5540 5545 5551 5557 5565 5571 5576 5582 5588 5593 5597 5602 5607 5613 5620 5625 5630 5635 5639 5644 5649 5653 5657 5661 5665 5670 5677 5683 5687 5690 5693 5697 5702 5706 5708 5712 5715 5719 5722 5725 5728 5731 5733 5733 5734 5738 5738 5738 5743 5746 5746 5747 5751 5755 5758 5762 5768 5772 5774 5776 5778 5779 5782 5784 5788 5789 5789 5789
5443 5443 5445 5449 5452 5455 5458 5463 5468 5475 5482 5488 5493 5496 5500 5505 5511 5518 5525 5531 5537 5542 5547 5554 5561 5567 5572 5579 5586 5590 5594 5598 5602 5609 5615 5620 5625 5630 5634 5639 5644 5648 5652 5656 5661 5667 5673 5678 5682 5686 5689 5694 5698 5701 5705 5709 5712 5715 5718 5721 5725 5727 5729 5730 5731 5734 5732 5735 5742 5744 5744 5745 5748 5754 5759 5763 5768 5771 5772 5774 5776 5778 5780 5784 5786 5788 5788 5788
5441 5441 5443 5447 5451 5454 5459 5464 5470 5477 5483 5489 5493 5496 5499 5504 5510 5517 5523 5530 5535 5540 5545 5551 5558 5564 5569 5576 5582 5588 5592 5596 5600 5606 5612 5617 5622 5626 5631 5635 5639 5643 5646 5650 5656 5662 5668 5673 5677 5681 5686 5690 5694 5697 5701 5705 5708 5711 5714 5717 5719 5722 5724 5725 5727 5728 5728 5734 5741 5742 5742 5743 5746 5753 5758 5761 5766 5768 5769 5772 5775 5777 5780 5782 5785 5786 5786 5787
5440 5441 5443 5447 5452 5456 5461 5467 5473 5479 5484 5489 5493 5496 5499 5504 5510 5517 5522 5528 5533 5538 5544 5550 5556 5560 5566 5573 5579 5584 5589 5594 5599 5605 5610 5615 5620 5625 5629 5633 5638 5641 5644 5648 5652 5657 5663 5668 5673 5677 5682 5687 5691 5694 5698 5701 5705 5707 5710 5712 5714 5716 5718 5720 5723 5724 5727 5734 5739 5740 5740 5741 5744 5751 5755 5759 5763 5765 5767 5769 5772 5775 5777 5780 5782 5783 5784 5785
5441 5443 5446 5450 5454 5459 5464 5470 5476 5481 5486 5491 5493 5497 5501 5505 5511 5516 5522 5527 5532 5537 5543 5549 5554 5558 5563 5570 5576 5580 5585 5591 5596 5602 5607 5612 5617 5622 5627 5630 5635 5639 5643 5647 5652 5656 5661 5664 5667 5672 5678 5683 5688 5692 5697 5701 5704 5706 5708 5711 5713 5714 5716 5718 5721 5723 5727 5733 5737 5738 5738 5738 5742 5749 5754 5758 5761 5763 5765 5768 5770 5772 5774 5776 5779 5780 5782 5783
5446 5448 5451 5456 5461 5465 5470 5474 5478 5483 5488 5492 5495 5498 5502 5506 5511 5517 5522 5527 5530 5536 5542 5547 5552 5556 5561 5567 5572 5578 5583 5588 5594 5599 5604 5610 5615 5620 5624 5628 5632 5635 5639 5644 5649 5655 5660 5663 5666 5671 5676 5681 5686 5690 5694 5697 5701 5704 5706 5708 5710 5713 5716 5718 5721 5723 5727 5732 5735 5736 5735 5736 5741 5748 5753 5756 5759 5761 5764 5766 5768 5770 5772 5774 5776 5777 5779 5781
5455 5457 5460 5464 5468 5472 5475 5478 5481 5486 5490 5494 5497 5500 5503 5507 5513 5518 5522 5526 5530 5535 5541 5546 5551 5556 5561 5565 5570 5575 5581 5587 5592 5597 5602 5607 5613 5618 5622 5626 5630 5633 5637 5641 5646 5651 5657 5661 5665 5670 5676 5681 5685 5689 5692 5694 5696 5699 5702 5705 5709 5713 5715 5717 5720 5722 5725 5729 5732 5733 5733 5736 5741 5746 5750 5753 5756 5759 5762 5764 5766 5768 5770 5771 5773 5774 5776 5778
5467 5468 5470 5472 5474 5477 5480 5483 5486 5489 5492 5496 5498 5501 5504 5509 5515 5519 5523 5526 5530 5535 5540 5545 5549 5555 5561 5565 5569 5574 5578 5584 5589 5595 5600 5605 5609 5614 5619 5623 5628 5632 5637 5641 5645 5650 5655 5659 5664 5669 5675 5679 5683 5687 5690 5692 5694 5697 5701 5704 5709 5712 5713 5715 5718 5720 5722 5725 5728 5730 5732 5735 5739 5743 5748 5751 5754 5756 5760 5762 5764 5765 5767 5768 5770 5772 5774 5776
5477 5477 5477 5478 5481 5483 5485 5487 5490 5492 5495 5498 5500 5502 5506 5512 5517 5521 5523 5527 5531 5536 5540 5544 5548 5554 5560 5565 5569 5573 5578 5582 5586 5592 5597 5602 5607 5612 5616 5620 5624 5630 5635 5639 5644 5648 5653 5658 5663 5668 5672 5676 5679 5682 5685 5688 5692 5696 5699 5703 5707 5709 5710 5712 5715 5717 5720 5722 5725 5728 5731 5733 5736 5740 5746 5750 5753 5755 5758 5760 5762 5763 5765 5767 5769 5773 5774 5775
5484 5484 5484 5484 5486 5488 5489 5491 5493 5495 5498 5500 5501 5504 5509 5514 5518 5521 5524 5528 5532 5536 5540 5544 5549 5554 5559 5564 5568 5573 5577 5581 5585 5590 5594 5599 5605 5609 5614 5618 5622 5627 5631 5637 5641 5646 5650 5655 5660 5665 5670 5673 5675 5678 5682 5686 5690 5692 5695 5700 5705 5707 5708 5712 5714 5716 5718 5721 5723 5726 5728 5731 5735 5740 5745 5750 5752 5754 5756 5759 5761 5762 5765 5766 5768 5771 5773 5774
5488 5488 5488 5488 5490 5491 5492 5493 5494 5496 5499 5501 5504 5507 5511 5515 5519 5522 5526 5529 5533 5537 5541 5546 5550 5555 5559 5563 5567 5572 5576 5580 5585 5589 5593 5598 5603 5608 5612 5616 5621 5625 5630 5634 5639 5643 5648 5653 5657 5661 5665 5668 5672 5676 5681 5685 5687 5690 5693 5698 5701 5703 5706 5711 5713 5715 5717 5720 5722 5724 5727 5731 5735 5739 5744 5748 5751 5753 5755 5757 5759 5761 5763 5765 5767 5769 5771 5773
5492 5492 5492 5492 5493 5493 5494 5495 5496 5497 5500 5503 5505 5509 5513 5517 5521 5524 5528 5531 5534 5538 5542 5546 5551 5555 5559 5563 5566 5570 5575 5579 5584 5588 5593 5598 5602 5607 5611 5615 5619 5623 5627 5631 5635 5640 5645 5650 5654 5658 5662 5666 5672 5677 5682 5684 5688 5691 5694 5697 5699 5701 5704 5707 5709 5712 5715 5717 5720 5722 5725 5730 5734 5738 5742 5746 5748 5751 5752 5754 5757 5759 5762 5764 5765 5767 5770 5771
5495 5495 5495 5495 5495 5496 5497 5498 5499 5500 5502 5505 5508 5512 5516 5520 5523 5526 5530 5533 5536 5540 5544 5547 5551 5555 5559 5563 5566 5570 5574 5578 5583 5587 5592 5597 5602 5606 5610 5615 5619 5622 5626 5630 5634 5638 5643 5648 5652 5656 5661 5666 5671 5675 5679 5682 5686 5690 5692 5695 5698 5700 5702 5705 5707 5710 5713 5715 5717 5721 5725 5729 5732 5736 5740 5743 5746 5748 5750 5752 5754 5757 5760 5762 5764 5765 5767 5768
5497 5497 5497 5497 5497 5498 5499 5500 5501 5503 5506 5508 5512 5516 5519 5523 5526 5529 5532 5535 5538 5542 5545 5549 5552 5555 5559 5563 5567 5571 5575 5579 5583 5587 5591 5596 5601 5605 5609 5614 5618 5621 5625 5629 5633 5637 5642 5646 5650 5654 5659 5663 5667 5672 5676 5679 5682 5685 5688 5691 5695 5698 5702 5704 5707 5709 5712 5714 5717 5720 5724 5727 5730 5734 5737 5740 5743 5746 5748 5750 5753 5755 5758 5760 5762 5763 5765 5766
5498 5498 5498 5498 5499 5500 5501 5502 5504 5506 5510 5513 5516 5519 5522 5525 5529 5532 5535 5538 5540 5544 5547 5550 5554 5557 5560 5563 5567 5571 5576 5580 5584 5588 5592 5597 5601 5605 5609 5613 5617 5620 5624 5628 5632 5636 5640 5644 5648 5652 5656 5659 5662 5666 5670 5673 5677 5681 5685 5689 5693 5696 5699 5701 5704 5707 5710 5712 5715 5719 5722 5726 5729 5732 5735 5738 5741 5744 5746 5749 5751 5753 5756 5758 5760 5761 5762 5764
5498 5498 5499 5500 5501 5501 5502 5504 5507 5510 5514 5517 5520 5522 5525 5528 5532 5535 5537 5540 5543 5546 5549 5552 5555 5558 5561 5565 5568 5572 5576 5580 5585 5588 5593 5597 5601 5604 5608 5611 5615 5619 5624 5629 5632 5635 5640 5643 5646 5650 5653 5656 5659 5662 5666 5670 5675 5679 5683 5687 5690 5693 5696 5698 5701 5704 5707 5710 5713 5716 5720 5723 5726 5729 5732 5735 5738 5741 5744 5746 5749 5751 5753 5755 5757 5759 5760 5762
5498 5499 5499 5501 5502 5504 5506 5509 5512 5515 5518 5520 5523 5526 5528 5531 5535 5537 5540 5542 5545 5547 5550 5554 5557 5560 5563 5567 5570 5573 5577 5581 5586 5590 5593 5596 5599 5602 5606 5609 5613 5617 5622 5626 5630 5633 5638 5642 5645 5649 5653 5656 5659 5663 5667 5670 5673 5677 5680 5684 5688 5691 5694 5697 5699 5702 5705 5708 5711 5713 5717 5721 5724 5727 5730 5732 5735 5738 5741 5744 5746 5748 5750 5752 5754 5756 5758 5759
5500 5501 5501 5503 5506 5509 5512 5515 5518 5520 5522 5524 5527 5530 5532 5534 5537 5540 5542 5545 5548 5550 5553 5556 5559 5562 5565 5568 5571 5575 5579 5583 5587 5590 5593 5595 5597 5600 5603 5607 5612 5616 5620 5624 5627 5630 5634 5639 5643 5647 5651 5654 5658 5662 5665 5669 5672 5676 5680 5683 5685 5688 5691 5694 5697 5700 5703 5706 5709 5712 5715 5718 5722 5725 5728 5730 5733 5736 5739 5741 5743 5745 5748 5750 5751 5753 5755 5756
5503 5505 5506 5508 5511 5514 5517 5520 5521 5523 5526 5528 5531 5533 5536 5537 5540 5543 5545 5548 5551 5554 5556 5558 5562 5564 5566 5569 5572 5576 5580 5584 5587 5590 5592 5594 5596 5599 5602 5606 5611 5614 5617 5621 5625 5628 5633 5637 5640 5644 5648 5652 5655 5659 5663 5667 5670 5674 5678 5681 5683 5686 5689 5692 5695 5698 5701 5704 5707 5710 5712 5716 5719 5722 5725 5728 5731 5733 5736 5738 5740 5742 5744 5746 5748 5750 5752 5754
5508 5510 5512 5514 5517 5520 5522 5523 5525 5526 5529 5531 5534 5536 5538 5541 5543 5546 5549 5551 5554 5556 5558 5561 5564 5566 5568 5571 5574 5577 5581 5584 5586 5588 5590 5593 5596 5599 5602 5606 5609 5612 5615 5619 5622 5626 5631 5635 5638 5642 5646 5649 5653 5657 5660 5665 5668 5672 5675 5678 5681 5684 5687 5690 5693 5696 5698 5701 5704 5707 5710 5713 5716 5719 5722 5725 5728 5730 5733 5735 5737 5739 5741 5743 5745 5747 5749 5751
5515 5516 5518 5520 5522 5524 5526 5527 5528 5529 5531 5533 5536 5539 5541 5543 5545 5548 5550 5553 5555 5557 5560 5562 5565 5568 5570 5572 5575 5578 5581 5583 5586 5588 5590 5593 5596 5599 5602 5605 5608 5611 5614 5618 5621 5625 5629 5633 5637 5641 5644 5648 5651 5655 5659 5663 5666 5670 5673 5676 5679 5682 5685 5688 5690 5693 5696 5699 5702 5705 5708 5711 5714 5716 5719 5721 5724 5727 5729 5731 5734 5736 5738 5740 5742 5744 5746 5747
5521 5522 5523 5525 5526 5527 5529 5530 5531 5533 5535 5537 5539 5542 5544 5545 5547 5549 5551 5554 5556 5559 5561 5564 5566 5569 5571 5574 5576 5579 5581 5583 5586 5588 5590 5593 5596 5599 5602 5605 5608 5611 5614 5617 5620 5624 5628 5632 5635 5639 5643 5647 5650 5653 5657 5661 5664 5667 5670 5674 5677 5680 5682 5685 5688 5691 5694 5697 5699 5702 5705 5708 5711 5714 5716 5718 5721 5724 5726 5728 5730 5733 5735 5737 5739 5741 5743 5744
5527 5528 5528 5529 5529 5530 5532 5533 5535 5537 5539 5540 5542 5545 5546 5547 5549 5551 5554 5556 5559 5561 5563 5566 5568 5570 5572 5575 5578 5580 5582 5584 5586 5588 5591 5594 5596 5599 5602 5605 5608 5611 5614 5617 5620 5623 5627 5630 5634 5637 5641 5645 5649 5652 5655 5658 5661 5664 5667 5671 5674 5678 5680 5683 5686 5688 5691 5694 5697 5700 5703 5706 5708 5711 5713 5716 5718 5721 5724 5726 5728 5730 5732 5734 5736 5737 5739 5740